QPF
0.02 0.01 0.00 0.00 0.00 0.00 0.00 0.00 0.00 0.00 0.00 0.00 0.00 0.00 0.00 0.00 0.00 0.00 0.00 0.00 0.00 0.00 0.00 0.00 0.00 0.00 0.00 0.00 0.00 0.00 0.00 0.00 0.00
0.01 0.00 0.00 0.00 0.00 0.00 0.00 0.00 0.00 0.00 0.00 0.00 0.00 0.00 0.00 0.00 0.00 0.00 0.00 0.00 0.00 0.00 0.00 0.00 0.00 0.00 0.00 0.00 0.00 0.00 0.00 0.00 0.00
0.00 0.00 0.00 0.00 0.00 0.00 0.01 0.00 0.00 0.00 0.00 0.00 0.00 0.00 0.00 0.00 0.00 0.00 0.00 0.00 0.00 0.00 0.00 0.00 0.00 0.00 0.00 0.00 0.00 0.00 0.00 0.00 0.00
0.00 0.00 0.00 0.00 0.00 0.00 0.00 0.00 0.00 0.00 0.00 0.00 0.00 0.00 0.00 0.00 0.00 0.00 0.00 0.00 0.00 0.00 0.00 0.00 0.00 0.00 0.00 0.00 0.00 0.00 0.00 0.00 0.00
0.00 0.00 0.00 0.00 0.00 0.00 0.00 0.00 0.00 0.00 0.00 0.00 0.00 0.00 0.00 0.00 0.00 0.00 0.00 0.00 0.00 0.00 0.00 0.00 0.00 0.00 0.00 0.00 0.00 0.00 0.00 0.00 0.00
0.00 0.00 0.00 0.00 0.00 0.00 0.00 0.00 0.00 0.00 0.00 0.00 0.00 0.00 0.00 0.00 0.00 0.00 0.00 0.00 0.00 0.00 0.00 0.00 0.00 0.00 0.00 0.00 0.00 0.00 0.00 0.00 0.00
0.00 0.00 0.00 0.00 0.00 0.00 0.00 0.00 0.00 0.00 0.00 0.00 0.00 0.00 0.00 0.00 0.00 0.00 0.00 0.00 0.00 0.00 0.00 0.00 0.00 0.00 0.00 0.00 0.00 0.00 0.00 0.00 0.00
0.00 0.01 0.00 0.00 0.00 0.00 0.00 0.00 0.00 0.00 0.00 0.00 0.00 0.00 0.00 0.00 0.00 0.00 0.00 0.00 0.00 0.00 0.00 0.00 0.00 0.00 0.00 0.00 0.00 0.00 0.00 0.00 0.00
0.00 0.00 0.00 0.00 0.00 0.00 0.00 0.00 0.00 0.00 0.00 0.00 0.00 0.00 0.00 0.00 0.00 0.00 0.00 0.00 0.00 0.00 0.00 0.00 0.00 0.00 0.00 0.00 0.00 0.00 0.00 0.00 0.00
0.00 0.00 0.00 0.00 0.00 0.00 0.00 0.00 0.00 0.00 0.00 0.00 0.00 0.00 0.00 0.00 0.00 0.00 0.00 0.00 0.00 0.00 0.00 0.00 0.00 0.00 0.00 0.00 0.00 0.00 0.00 0.00 0.00
0.00 0.00 0.00 0.00 0.00 0.00 0.00 0.00 0.00 0.00 0.00 0.00 0.00 0.00 0.00 0.00 0.00 0.00 0.00 0.00 0.00 0.00 0.00 0.00 0.00 0.00 0.00 0.00 0.00 0.00 0.00 0.00 0.00
0.00 0.00 0.00 0.00 0.00 0.00 0.00 0.00 0.00 0.00 0.00 0.00 0.00 0.00 0.00 0.00 0.00 0.00 0.00 0.00 0.00 0.00 0.00 0.00 0.00 0.00 0.00 0.00 0.00 0.00 0.00 0.00 0.00
0.00 0.00 0.00 0.00 0.00 0.00 0.00 0.00 0.00 0.00 0.00 0.00 0.00 0.00 0.00 0.00 0.00 0.00 0.00 0.00 0.00 0.00 0.00 0.00 0.00 0.00 0.00 0.00 0.00 0.00 0.00 0.00 0.00
0.00 0.00 0.00 0.00 0.00 0.00 0.00 0.00 0.00 0.00 0.00 0.00 0.00 0.00 0.00 0.00 0.00 0.00 0.00 0.00 0.00 0.00 0.00 0.00 0.00 0.00 0.00 0.00 0.00 0.00 0.00 0.00 0.00
0.00 0.00 0.00 0.00 0.00 0.00 0.00 0.00 0.00 0.00 0.00 0.00 0.00 0.00 0.00 0.00 0.00 0.00 0.00 0.00 0.00 0.00 0.00 0.00 0.00 0.00 0.00 0.00 0.00 0.04 0.08 0.02 0.00
0.00 0.00 0.00 0.00 0.00 0.00 0.00 0.00 0.00 0.00 0.00 0.00 0.00 0.00 0.00 0.00 0.00 0.00 0.00 0.00 0.00 0.00 0.00 0.00 0.00 0.00 0.00 0.00 0.00 0.01 0.11 0.06 0.03
0.00 0.00 0.00 0.00 0.00 0.00 0.00 0.00 0.00 0.00 0.00 0.00 0.00 0.00 0.00 0.00 0.00 0.00 0.00 0.00 0.00 0.00 0.00 0.00 0.00 0.00 0.00 0.00 0.00 0.00 0.01 0.05 0.09
0.00 0.00 0.00 0.00 0.00 0.00 0.00 0.00 0.00 0.00 0.00 0.00 0.00 0.00 0.00 0.00 0.00 0.00 0.00 0.00 0.00 0.00 0.00 0.00 0.00 0.00 0.00 0.00 0.00 0.00 0.00 0.00 0.00
0.00 0.00 0.00 0.00 0.00 0.00 0.00 0.00 0.00 0.00 0.00 0.00 0.00 0.00 0.00 0.00 0.00 0.00 0.00 0.00 0.00 0.00 0.00 0.00 0.00 0.00 0.00 0.00 0.00 0.00 0.00 0.00 0.00
0.00 0.00 0.00 0.00 0.00 0.00 0.00 0.01 0.01 0.01 0.00 0.00 0.00 0.00 0.00 0.00 0.00 0.00 0.00 0.00 0.01 0.01 0.00 0.00 0.00 0.00 0.00 0.00 0.01 0.01 0.00 0.00 0.00
MSLP
1016.67 1017.08 1017.46 1017.79 1018.05 1018.51 1018.78 1019.11 1019.38 1019.65 1019.88 1020.05 1020.19 1020.34 1020.23 1019.90 1019.87 1020.09 1020.43 1020.48 1020.99 1021.06 1021.10 1021.06 1021.13 1021.16 1021.18 1021.17 1021.19 1021.18 1021.12 1021.25 1021.23
1016.79 1017.29 1017.72 1018.18 1018.38 1018.73 1019.01 1019.38 1019.69 1019.97 1020.20 1020.41 1020.58 1020.72 1020.48 1019.93 1020.04 1020.20 1020.53 1021.02 1021.22 1021.31 1021.37 1021.40 1021.55 1021.52 1021.57 1021.59 1021.62 1021.62 1021.57 1021.63 1021.63
1016.98 1017.55 1017.91 1018.37 1018.64 1018.91 1019.20 1019.60 1019.97 1020.27 1020.50 1020.79 1020.92 1021.04 1020.68 1020.27 1020.32 1020.60 1020.95 1021.55 1021.58 1021.67 1021.78 1021.85 1021.87 1021.93 1022.00 1021.96 1021.96 1021.97 1021.94 1021.97 1021.97
1017.05 1017.67 1018.18 1018.53 1018.95 1019.19 1019.53 1019.89 1020.32 1020.60 1020.86 1021.15 1021.33 1021.39 1021.04 1020.59 1020.76 1020.91 1021.37 1021.90 1021.98 1022.05 1022.11 1022.21 1022.23 1022.28 1022.34 1022.38 1022.37 1022.35 1022.26 1022.36 1022.34
1017.19 1017.71 1018.27 1018.74 1019.22 1019.53 1019.88 1020.24 1020.63 1021.01 1021.28 1021.42 1021.75 1021.70 1021.24 1021.03 1021.21 1021.24 1021.95 1022.26 1022.27 1022.43 1022.47 1022.56 1022.65 1022.76 1022.81 1022.85 1022.80 1022.80 1022.72 1022.71 1022.73
1017.46 1017.58 1018.43 1018.91 1019.37 1019.81 1020.20 1020.49 1020.91 1021.37 1021.66 1021.78 1021.96 1021.68 1021.02 1021.16 1021.32 1021.71 1022.46 1022.56 1022.55 1022.67 1022.82 1022.91 1023.03 1023.16 1023.22 1023.25 1023.27 1023.25 1023.25 1023.22 1023.18
1016.92 1018.10 1018.76 1019.16 1019.65 1020.00 1020.49 1020.77 1021.12 1021.13 1021.32 1021.78 1021.85 1021.19 1021.23 1021.43 1021.56 1022.16 1022.67 1022.75 1022.89 1023.00 1023.19 1023.32 1023.43 1023.54 1023.61 1023.64 1023.69 1023.68 1023.67 1023.68 1023.68
1017.32 1018.21 1018.78 1019.18 1019.73 1019.92 1020.44 1021.01 1020.50 1020.63 1020.80 1021.11 1021.13 1021.15 1021.34 1021.55 1021.85 1022.66 1022.91 1023.02 1023.16 1023.27 1023.35 1023.47 1023.61 1023.74 1023.82 1023.87 1023.95 1023.98 1023.97 1024.03 1023.98
1016.98 1017.92 1018.10 1018.63 1018.94 1019.49 1019.94 1020.18 1020.44 1020.65 1020.79 1020.88 1021.03 1021.22 1021.47 1021.56 1021.88 1022.83 1023.14 1023.17 1023.25 1023.37 1023.50 1023.65 1023.77 1023.86 1023.94 1024.05 1024.13 1024.15 1024.16 1024.08 1024.08
1016.69 1018.09 1017.94 1018.37 1018.71 1019.32 1019.67 1020.03 1020.31 1020.52 1020.75 1020.91 1021.01 1021.29 1021.52 1021.82 1022.04 1022.30 1023.26 1023.29 1023.37 1023.45 1023.55 1023.67 1023.77 1023.87 1023.94 1024.03 1024.12 1024.21 1024.27 1024.26 1024.22
1016.71 1018.37 1018.25 1018.40 1018.77 1019.21 1019.50 1019.79 1020.16 1020.43 1020.60 1020.90 1021.09 1021.27 1021.55 1021.75 1022.05 1022.17 1022.84 1023.36 1023.41 1023.50 1023.54 1023.61 1023.74 1023.81 1023.88 1023.98 1024.10 1024.21 1024.28 1024.38 1024.48
1017.64 1018.40 1018.30 1018.39 1018.73 1019.19 1019.54 1019.90 1020.20 1020.39 1020.67 1020.74 1021.00 1021.18 1021.31 1021.60 1021.86 1022.07 1022.13 1022.82 1023.33 1023.39 1023.40 1023.46 1023.58 1023.71 1023.79 1023.97 1024.16 1024.23 1024.32 1024.37 1024.47
1017.51 1017.81 1018.19 1018.36 1018.81 1019.22 1019.69 1020.05 1020.25 1020.46 1020.75 1020.83 1021.01 1021.15 1021.36 1021.38 1021.58 1021.95 1022.12 1022.33 1022.37 1023.09 1023.21 1023.24 1023.34 1023.49 1023.65 1023.74 1023.94 1024.02 1024.12 1024.23 1024.27
1017.00 1017.31 1017.76 1018.42 1018.94 1019.30 1019.55 1019.91 1020.26 1020.47 1020.76 1020.92 1021.06 1021.14 1021.29 1021.39 1021.49 1021.49 1021.66 1021.91 1022.22 1022.15 1022.69 1023.05 1023.15 1023.19 1023.33 1023.36 1023.37 1023.48 1023.64 1023.74 1023.79
1016.66 1017.21 1017.81 1018.46 1018.83 1019.38 1019.58 1019.91 1020.28 1020.32 1020.52 1020.94 1021.04 1021.05 1021.09 1021.10 1020.98 1021.03 1021.24 1021.36 1021.72 1021.88 1021.94 1022.28 1022.53 1022.89 1022.92 1022.90 1022.93 1022.95 1023.13 1023.32 1023.37
1016.61 1017.24 1017.86 1018.30 1018.62 1019.18 1019.64 1019.92 1020.20 1020.58 1020.82 1020.76 1020.78 1020.78 1020.67 1020.67 1020.67 1020.85 1020.91 1021.03 1021.41 1021.47 1021.61 1021.68 1021.62 1021.84 1022.49 1022.65 1022.62 1022.70 1022.69 1023.07 1023.06
1016.70 1017.16 1017.74 1018.30 1018.57 1019.03 1019.47 1019.99 1020.19 1020.26 1020.68 1020.40 1020.56 1020.11 1020.00 1020.24 1020.32 1020.48 1020.76 1020.74 1020.92 1021.17 1021.38 1021.56 1021.46 1021.36 1021.46 1021.79 1022.25 1022.44 1022.49 1022.52 1022.63
1016.69 1017.24 1017.67 1018.21 1018.67 1019.09 1019.50 1019.79 1020.03 1020.18 1020.60 1020.64 1020.42 1020.42 1020.03 1020.25 1020.19 1020.35 1020.60 1020.75 1020.91 1021.26 1021.03 1021.36 1021.53 1021.50 1021.48 1021.80 1022.12 1022.28 1022.27 1022.44 1022.43
1016.43 1017.07 1017.51 1017.99 1018.60 1019.07 1019.42 1019.72 1020.03 1020.14 1020.18 1020.87 1020.99 1020.92 1021.01 1020.67 1019.97 1020.12 1020.51 1020.91 1021.24 1021.27 1021.59 1021.65 1021.54 1021.82 1022.02 1022.31 1022.72 1022.74 1022.56 1022.46 1022.29
1016.18 1016.93 1017.45 1017.98 1018.37 1018.86 1019.21 1019.70 1019.99 1020.14 1020.63 1020.65 1020.97 1020.86 1021.00 1021.12 1021.08 1020.47 1020.38 1020.87 1021.52 1021.57 1021.41 1021.58 1022.00 1022.05 1022.43 1022.55 1022.92 1022.96 1022.57 1022.67 1022.35
Thickness
5738 5737 5735 5733 5730 5728 5726 5723 5721 5718 5717 5715 5714 5713 5713 5716 5715 5713 5711 5711 5708 5707 5706 5706 5705 5703 5702 5700 5697 5695 5694 5690 5688
5735 5732 5731 5727 5727 5724 5723 5720 5718 5715 5713 5711 5710 5709 5711 5714 5713 5712 5710 5706 5705 5704 5704 5703 5701 5700 5698 5696 5694 5691 5689 5686 5683
5731 5728 5727 5724 5723 5721 5720 5717 5714 5712 5710 5707 5706 5705 5707 5710 5710 5708 5705 5701 5701 5701 5700 5698 5697 5696 5694 5692 5690 5688 5686 5683 5680
5728 5725 5722 5720 5719 5718 5715 5713 5709 5707 5705 5703 5702 5701 5704 5706 5705 5704 5701 5697 5697 5696 5695 5694 5693 5691 5689 5687 5685 5683 5681 5678 5676
5726 5722 5718 5716 5713 5713 5710 5708 5705 5702 5700 5700 5697 5698 5701 5701 5700 5700 5695 5693 5693 5692 5691 5689 5688 5686 5684 5682 5680 5678 5676 5674 5671
5720 5720 5715 5712 5709 5707 5705 5704 5701 5698 5696 5696 5694 5696 5699 5699 5698 5695 5691 5689 5690 5688 5686 5685 5683 5681 5679 5676 5674 5673 5671 5668 5666
5720 5713 5710 5707 5704 5703 5700 5700 5697 5697 5694 5692 5693 5696 5695 5694 5693 5690 5687 5686 5685 5684 5682 5679 5677 5675 5673 5671 5669 5667 5665 5663 5659
5712 5708 5706 5704 5701 5700 5697 5694 5697 5697 5696 5695 5694 5694 5692 5691 5688 5684 5683 5682 5680 5679 5677 5676 5673 5671 5668 5666 5664 5662 5660 5656 5654
5710 5705 5706 5705 5703 5700 5697 5696 5695 5694 5694 5694 5694 5692 5689 5689 5686 5680 5679 5677 5676 5675 5673 5671 5669 5667 5665 5662 5659 5657 5655 5653 5650
5709 5701 5703 5702 5702 5698 5696 5695 5693 5692 5691 5691 5692 5690 5687 5684 5682 5680 5675 5674 5672 5672 5670 5668 5666 5664 5662 5659 5657 5654 5650 5648 5645
5705 5695 5697 5697 5697 5695 5694 5694 5691 5690 5689 5688 5687 5687 5684 5682 5680 5678 5674 5671 5670 5668 5667 5665 5662 5660 5658 5655 5653 5649 5645 5642 5638
5693 5690 5692 5693 5692 5690 5689 5688 5687 5687 5686 5686 5685 5684 5683 5681 5679 5676 5676 5671 5668 5666 5664 5661 5659 5657 5654 5650 5647 5644 5639 5636 5632
5689 5689 5688 5688 5687 5686 5684 5682 5683 5683 5681 5681 5681 5680 5678 5678 5677 5674 5672 5669 5668 5664 5661 5659 5656 5653 5649 5646 5642 5639 5636 5632 5629
5687 5688 5687 5683 5681 5680 5681 5679 5678 5678 5676 5676 5676 5676 5674 5673 5673 5672 5670 5668 5665 5664 5660 5656 5653 5651 5647 5645 5642 5638 5634 5632 5628
5684 5683 5681 5678 5678 5675 5676 5676 5675 5676 5675 5672 5671 5673 5672 5672 5672 5672 5669 5668 5664 5661 5659 5655 5652 5650 5647 5644 5641 5638 5633 5628 5625
5680 5678 5676 5676 5676 5671 5670 5671 5670 5668 5668 5668 5669 5670 5671 5671 5670 5668 5667 5665 5661 5660 5657 5654 5652 5649 5644 5641 5640 5636 5634 5626 5622
5674 5675 5673 5669 5670 5669 5668 5664 5664 5665 5664 5665 5662 5662 5667 5667 5667 5665 5662 5661 5659 5657 5653 5650 5648 5647 5644 5640 5637 5633 5631 5627 5623
5669 5666 5664 5662 5661 5662 5662 5661 5660 5659 5659 5660 5661 5655 5657 5658 5663 5661 5659 5658 5656 5651 5649 5644 5642 5639 5637 5634 5632 5630 5628 5622 5619
5664 5661 5660 5659 5657 5656 5655 5656 5656 5658 5657 5653 5652 5652 5651 5648 5652 5658 5654 5651 5646 5646 5641 5637 5636 5632 5629 5625 5622 5621 5620 5616 5614
5659 5657 5656 5655 5654 5652 5652 5651 5650 5652 5649 5648 5644 5647 5646 5645 5642 5644 5647 5644 5638 5637 5638 5633 5628 5625 5622 5619 5615 5611 5612 5606 5604